TimePST,TemperatureF,Dew PointF,Humidity,Sea Level PressureIn,VisibilityMPH,Wind Direction,Wind SpeedMPH,Gust SpeedMPH,PrecipitationIn,Events,Conditions,WindDirDegrees,DateUTC
12:52 AM,60.1,52.0,75,30.05,10.0,NNE,3.5,-,N/A,,Mostly Cloudy,30,2014-02-11 08:52:00
1:52 AM,57.9,51.1,78,30.05,10.0,NNW,4.6,-,N/A,,Mostly Cloudy,340,2014-02-11 09:52:00
2:52 AM,57.9,51.1,78,30.04,10.0,NNW,4.6,-,N/A,,Mostly Cloudy,330,2014-02-11 10:52:00
3:52 AM,57.9,51.1,78,30.03,8.0,NNE,5.8,-,N/A,,Mostly Cloudy,20,2014-02-11 11:52:00
4:12 AM,57.9,52.0,81,30.03,0.8,North,5.8,-,N/A,,Overcast,360,2014-02-11 12:12:00
4:32 AM,57.9,52.0,81,30.03,1.0,NNE,8.1,-,N/A,,Mostly Cloudy,20,2014-02-11 12:32:00
4:47 AM,57.2,51.8,82,30.03,0.5,NNE,6.9,-,N/A,Fog,Fog,30,2014-02-11 12:47:00
4:52 AM,57.9,51.1,78,30.03,0.5,NNE,6.9,-,N/A,Fog,Fog,30,2014-02-11 12:52:00
5:16 AM,57.0,51.1,81,30.03,0.2,North,5.8,-,N/A,Fog,Fog,360,2014-02-11 13:16:00
5:52 AM,57.0,51.1,81,30.03,0.2,Calm,Calm,-,N/A,Fog,Fog,0,2014-02-11 13:52:00
6:11 AM,57.0,52.0,83,30.04,0.2,NW,3.5,-,N/A,Fog,Fog,310,2014-02-11 14:11:00
6:22 AM,57.0,51.1,81,30.04,0.2,Calm,Calm,-,N/A,Fog,Fog,0,2014-02-11 14:22:00
6:52 AM,55.0,51.1,86,30.05,0.1,Calm,Calm,-,N/A,Fog,Fog,0,2014-02-11 14:52:00
7:24 AM,57.0,52.0,83,30.07,2.0,NW,4.6,-,N/A,,Mostly Cloudy,320,2014-02-11 15:24:00
7:52 AM,57.9,52.0,81,30.08,0.5,North,5.8,-,N/A,Fog,Fog,350,2014-02-11 15:52:00
8:08 AM,59.0,53.1,81,30.09,0.2,Calm,Calm,-,N/A,Fog,Fog,0,2014-02-11 16:08:00
8:52 AM,61.0,53.1,75,30.08,0.2,North,4.6,-,N/A,Fog,Fog,350,2014-02-11 16:52:00
9:25 AM,61.0,54.0,78,30.09,0.5,NNW,6.9,-,N/A,Fog,Fog,340,2014-02-11 17:25:00
9:45 AM,63.0,55.0,75,30.09,2.0,North,6.9,-,N/A,,Mostly Cloudy,350,2014-02-11 17:45:00
9:52 AM,63.0,55.0,75,30.09,2.5,NW,9.2,-,N/A,,Mostly Cloudy,320,2014-02-11 17:52:00
10:03 AM,63.0,55.0,75,30.09,3.0,NW,9.2,-,N/A,,Mostly Cloudy,320,2014-02-11 18:03:00
10:23 AM,64.0,55.0,73,30.08,5.0,NNW,6.9,-,N/A,,Haze,340,2014-02-11 18:23:00
10:52 AM,66.0,54.0,65,30.08,8.0,NNW,6.9,-,N/A,,Scattered Clouds,340,2014-02-11 18:52:00
11:52 AM,69.1,53.1,57,30.06,9.0,NW,10.4,-,N/A,,Scattered Clouds,320,2014-02-11 19:52:00
12:52 PM,69.1,53.1,57,30.04,10.0,NNW,12.7,-,N/A,,Scattered Clouds,330,2014-02-11 20:52:00
1:52 PM,68.0,54.0,61,30.04,8.0,NW,13.8,-,N/A,,Mostly Cloudy,310,2014-02-11 21:52:00
2:52 PM,64.9,55.0,70,30.03,5.0,NNW,12.7,-,N/A,,Haze,340,2014-02-11 22:52:00
3:52 PM,69.1,54.0,58,30.01,7.0,NNW,8.1,-,N/A,,Mostly Cloudy,330,2014-02-11 23:52:00
4:52 PM,66.0,54.0,65,30.01,8.0,NW,10.4,-,N/A,,Mostly Cloudy,310,2014-02-12 00:52:00
5:52 PM,64.9,53.1,65,30.02,8.0,NW,9.2,-,N/A,,Mostly Cloudy,320,2014-02-12 01:52:00
6:52 PM,63.0,53.1,70,30.03,7.0,NNW,8.1,-,N/A,,Mostly Cloudy,340,2014-02-12 02:52:00
7:52 PM,63.0,53.1,70,30.05,6.0,NNW,10.4,-,N/A,,Haze,340,2014-02-12 03:52:00
8:52 PM,62.1,55.0,78,30.07,5.0,North,10.4,-,N/A,,Mostly Cloudy,360,2014-02-12 04:52:00
9:52 PM,62.1,55.0,78,30.07,5.0,NW,6.9,-,N/A,,Mostly Cloudy,310,2014-02-12 05:52:00
10:52 PM,62.1,55.0,78,30.09,4.0,NNW,5.8,-,N/A,,Mostly Cloudy,340,2014-02-12 06:52:00
11:19 PM,61.0,55.0,81,30.08,1.5,NNW,6.9,-,N/A,,Mostly Cloudy,330,2014-02-12 07:19:00
11:52 PM,61.0,54.0,78,30.08,3.0,North,4.6,-,N/A,,Mostly Cloudy,350,2014-02-12 07:52:00